• In Uzbekistan
  • List of Countries
  • For 7 days
  • Water Temperature
  • Satellite Maps
  • Weather Map
  • Weather Widgets
  • user-avatar
    Login

    Hourly Weather Korfu

    Today, 23 October, Monday

    Time Temperature Precipitation Wind Pressure Humidity
    00:00 +18°C° 0 mm 4 mps 755 mmHg 84%
    01:00 +17°C° 0 mm 5 mps 755 mmHg 85%
    02:00 +17°C° 1.1 mm 5 mps 754 mmHg 85%
    03:00 +17°C° 1.1 mm 5 mps 754 mmHg 86%
    04:00 +16°C° 1.1 mm 5 mps 753 mmHg 87%
    05:00 +17°C° 2 mm 5 mps 753 mmHg 87%
    06:00 +17°C° 2 mm 5 mps 753 mmHg 87%
    07:00 +18°C° 2 mm 4 mps 752 mmHg 88%
    08:00 +18°C° 0.9 mm 4 mps 752 mmHg 85%
    09:00 +19°C° 0.9 mm 4 mps 752 mmHg 83%
    10:00 +19°C° 0.9 mm 4 mps 751 mmHg 81%
    11:00 +19°C° 0.6 mm 4 mps 751 mmHg 75%
    12:00 +20°C° 0.6 mm 4 mps 751 mmHg 70%
    13:00 +20°C° 0.6 mm 4 mps 750 mmHg 64%
    14:00 +19°C° 1 mm 4 mps 750 mmHg 66%
    15:00 +19°C° 1 mm 4 mps 749 mmHg 69%
    16:00 +18°C° 1 mm 4 mps 749 mmHg 71%
    17:00 +17°C° 0.4 mm 4 mps 749 mmHg 73%
    18:00 +17°C° 0.4 mm 4 mps 749 mmHg 76%
    19:00 +15°C° 0.4 mm 4 mps 749 mmHg 78%
    20:00 +14°C° 0.4 mm 5 mps 749 mmHg 79%
    21:00 +14°C° 0.4 mm 5 mps 749 mmHg 80%
    22:00 +13°C° 0.4 mm 5 mps 749 mmHg 82%
    23:00 +13°C° 0.8 mm 6 mps 749 mmHg 82%

    Tomorrow, 24 October, Tuesday

    Time Temperature Precipitation Wind Pressure Humidity
    00:00 +12°C° 0.8 mm 7 mps 749 mmHg 83%
    01:00 +12°C° 0.8 mm 8 mps 749 mmHg 84%
    02:00 +11°C° 0.4 mm 7 mps 748 mmHg 83%
    03:00 +11°C° 0.4 mm 7 mps 748 mmHg 82%
    04:00 +11°C° 0.4 mm 7 mps 748 mmHg 81%
    05:00 +11°C° 0.4 mm 7 mps 748 mmHg 80%
    06:00 +11°C° 0.4 mm 6 mps 748 mmHg 78%
    07:00 +11°C° 0.4 mm 6 mps 748 mmHg 76%
    08:00 +14°C° 0.1 mm 6 mps 748 mmHg 68%
    09:00 +16°C° 0.1 mm 6 mps 749 mmHg 60%
    10:00 +17°C° 0.1 mm 6 mps 749 mmHg 53%
    11:00 +19°C° 0.1 mm 6 mps 749 mmHg 51%
    12:00 +19°C° 0.1 mm 6 mps 749 mmHg 49%
    13:00 +20°C° 0.1 mm 7 mps 749 mmHg 47%
    14:00 +18°C° 0 mm 7 mps 749 mmHg 50%
    15:00 +18°C° 0 mm 7 mps 749 mmHg 53%
    16:00 +18°C° 0 mm 8 mps 749 mmHg 56%
    17:00 +17°C° 0 mm 7 mps 749 mmHg 59%
    18:00 +16°C° 0 mm 7 mps 750 mmHg 62%
    19:00 +15°C° 0 mm 7 mps 750 mmHg 66%
    20:00 +14°C° 0 mm 6 mps 751 mmHg 66%
    21:00 +14°C° 0 mm 6 mps 751 mmHg 67%
    22:00 +13°C° 0 mm 5 mps 752 mmHg 68%
    23:00 +13°C° 0 mm 5 mps 752 mmHg 68%

    Day after tomorrow, 25 October, Wednesday

    Time Temperature Precipitation Wind Pressure Humidity
    00:00 +13°C° 0 mm 5 mps 752 mmHg 69%
    01:00 +12°C° 0 mm 5 mps 753 mmHg 69%
    02:00 +12°C° 0 mm 5 mps 753 mmHg 70%
    03:00 +12°C° 0 mm 5 mps 754 mmHg 70%
    04:00 +12°C° 0 mm 5 mps 754 mmHg 71%
    05:00 +12°C° 0 mm 5 mps 754 mmHg 70%
    06:00 +13°C° 0 mm 4 mps 755 mmHg 70%
    07:00 +13°C° 0 mm 4 mps 755 mmHg 69%
    08:00 +15°C° 0 mm 4 mps 756 mmHg 61%
    09:00 +18°C° 0 mm 4 mps 756 mmHg 53%
    10:00 +21°C° 0 mm 3 mps 757 mmHg 46%
    11:00 +21°C° 0 mm 4 mps 757 mmHg 45%
    12:00 +22°C° 0 mm 4 mps 757 mmHg 44%
    13:00 +23°C° 0 mm 4 mps 758 mmHg 43%
    14:00 +22°C° 0 mm 4 mps 758 mmHg 46%
    15:00 +21°C° 0 mm 4 mps 758 mmHg 49%
    16:00 +21°C° 0 mm 4 mps 759 mmHg 53%
    17:00 +20°C° 0 mm 3 mps 759 mmHg 56%
    18:00 +18°C° 0 mm 3 mps 760 mmHg 59%
    19:00 +17°C° 0 mm 3 mps 761 mmHg 62%
    20:00 +17°C° 0 mm 3 mps 761 mmHg 64%
    21:00 +16°C° 0 mm 3 mps 762 mmHg 66%
    22:00 +16°C° 0 mm 3 mps 762 mmHg 67%
    23:00 +14°C° 0 mm 3 mps 763 mmHg 68%

    26 October, Thursday

    Time Temperature Precipitation Wind Pressure Humidity
    00:00 +14°C° 0 mm 3 mps 763 mmHg 69%
    01:00 +14°C° 0 mm 3 mps 763 mmHg 69%
    02:00 +14°C° 0 mm 3 mps 764 mmHg 69%
    03:00 +13°C° 0 mm 3 mps 764 mmHg 69%
    04:00 +13°C° 0 mm 3 mps 764 mmHg 70%
    05:00 +13°C° 0 mm 3 mps 764 mmHg 69%
    06:00 +13°C° 0 mm 3 mps 764 mmHg 68%
    07:00 +14°C° 0 mm 3 mps 765 mmHg 68%
    08:00 +17°C° 0 mm 3 mps 765 mmHg 60%
    09:00 +19°C° 0 mm 3 mps 765 mmHg 52%
    10:00 +21°C° 0 mm 2 mps 765 mmHg 45%
    11:00 +23°C° 0 mm 2 mps 765 mmHg 43%
    12:00 +24°C° 0 mm 2 mps 765 mmHg 41%
    13:00 +25°C° 0 mm 2 mps 765 mmHg 39%
    14:00 +24°C° 0 mm 2 mps 764 mmHg 44%
    15:00 +22°C° 0 mm 3 mps 764 mmHg 48%
    16:00 +22°C° 0 mm 3 mps 764 mmHg 53%
    17:00 +20°C° 0 mm 4 mps 765 mmHg 56%
    18:00 +19°C° 0 mm 4 mps 765 mmHg 60%
    19:00 +18°C° 0 mm 4 mps 765 mmHg 63%
    20:00 +18°C° 0 mm 3 mps 765 mmHg 63%
    21:00 +17°C° 0 mm 3 mps 765 mmHg 62%
    22:00 +17°C° 0 mm 3 mps 765 mmHg 61%
    23:00 +17°C° 0 mm 3 mps 765 mmHg 60%

    27 October, Friday

    Time Temperature Precipitation Wind Pressure Humidity
    00:00 +16°C° 0 mm 2 mps 765 mmHg 59%
    01:00 +16°C° 0 mm 2 mps 764 mmHg 59%
    02:00 +16°C° 0 mm 2 mps 764 mmHg 58%
    03:00 +16°C° 0 mm 2 mps 764 mmHg 58%
    04:00 +16°C° 0 mm 2 mps 764 mmHg 57%
    05:00 +16°C° 0 mm 3 mps 763 mmHg 57%
    06:00 +16°C° 0 mm 3 mps 763 mmHg 56%
    07:00 +16°C° 0 mm 3 mps 763 mmHg 56%
    08:00 +18°C° 0 mm 2 mps 763 mmHg 51%
    09:00 +21°C° 0 mm 2 mps 762 mmHg 46%
    10:00 +24°C° 0 mm 2 mps 762 mmHg 41%
    11:00 +24°C° 0 mm 2 mps 761 mmHg 41%
    12:00 +25°C° 0 mm 3 mps 761 mmHg 40%
    13:00 +25°C° 0 mm 3 mps 760 mmHg 40%
    14:00 +24°C° 0 mm 3 mps 760 mmHg 45%
    15:00 +22°C° 0 mm 3 mps 759 mmHg 51%
    16:00 +22°C° 0 mm 3 mps 759 mmHg 56%
    17:00 +20°C° 0 mm 2 mps 759 mmHg 62%
    18:00 +19°C° 0 mm 2 mps 758 mmHg 67%
    19:00 +18°C° 0 mm 2 mps 758 mmHg 72%
    20:00 +18°C° 0 mm 1 mps 758 mmHg 75%
    21:00 +18°C° 0 mm 1 mps 758 mmHg 78%
    22:00 +16°C° 0 mm 1 mps 758 mmHg 81%
    23:00 +16°C° 0 mm 1 mps 757 mmHg 82%

    28 October, Saturday

    Time Temperature Precipitation Wind Pressure Humidity
    00:00 +16°C° 0 mm 1 mps 757 mmHg 84%
    01:00 +15°C° 0 mm 1 mps 756 mmHg 85%
    02:00 +15°C° 0 mm 1 mps 756 mmHg 85%
    03:00 +15°C° 0 mm 2 mps 755 mmHg 85%
    04:00 +15°C° 0 mm 2 mps 755 mmHg 85%
    05:00 +15°C° 0 mm 2 mps 755 mmHg 81%
    06:00 +16°C° 0 mm 2 mps 755 mmHg 77%
    07:00 +16°C° 0 mm 2 mps 755 mmHg 73%
    08:00 +17°C° 0 mm 2 mps 755 mmHg 65%
    09:00 +19°C° 0 mm 2 mps 755 mmHg 57%
    10:00 +20°C° 0 mm 2 mps 755 mmHg 50%
    11:00 +21°C° 0 mm 2 mps 755 mmHg 48%
    12:00 +21°C° 0 mm 2 mps 754 mmHg 47%
    13:00 +22°C° 0 mm 1 mps 754 mmHg 46%
    14:00 +21°C° 0 mm 2 mps 754 mmHg 50%
    15:00 +20°C° 0 mm 3 mps 754 mmHg 53%
    16:00 +20°C° 0 mm 3 mps 754 mmHg 57%
    17:00 +19°C° 0 mm 4 mps 754 mmHg 60%
    18:00 +18°C° 0 mm 4 mps 754 mmHg 63%
    19:00 +16°C° 0 mm 5 mps 754 mmHg 66%
    20:00 +15°C° 0 mm 5 mps 754 mmHg 67%
    21:00 +15°C° 0 mm 5 mps 755 mmHg 67%
    22:00 +14°C° 0 mm 6 mps 755 mmHg 68%
    23:00 +14°C° 0 mm 6 mps 755 mmHg 68%

    29 October, Sunday

    Time Temperature Precipitation Wind Pressure Humidity
    00:00 +14°C° 0 mm 6 mps 755 mmHg 68%
    01:00 +13°C° 0 mm 6 mps 755 mmHg 69%
    02:00 +13°C° 0 mm 6 mps 755 mmHg 68%
    03:00 +13°C° 0 mm 6 mps 754 mmHg 67%
    04:00 +11°C° 0 mm 6 mps 754 mmHg 66%
    05:00 +13°C° 0 mm 6 mps 755 mmHg 64%
    06:00 +13°C° 0 mm 6 mps 755 mmHg 62%
    07:00 +13°C° 0 mm 6 mps 755 mmHg 59%
    08:00 +15°C° 0 mm 7 mps 756 mmHg 52%
    09:00 +16°C° 0 mm 7 mps 756 mmHg 45%
    10:00 +18°C° 0 mm 7 mps 756 mmHg 37%
    11:00 +20°C° 0 mm 8 mps 756 mmHg 35%
    12:00 +20°C° 0 mm 8 mps 756 mmHg 32%
    13:00 +21°C° 0 mm 9 mps 755 mmHg 30%
    14:00 +19°C° 0 mm 9 mps 756 mmHg 33%
    15:00 +18°C° 0 mm 9 mps 756 mmHg 37%
    16:00 +17°C° 0 mm 9 mps 756 mmHg 40%
    17:00 +16°C° 0 mm 8 mps 757 mmHg 44%
    18:00 +15°C° 0 mm 8 mps 757 mmHg 47%
    19:00 +12°C° 0 mm 7 mps 758 mmHg 50%
    20:00 +12°C° 0 mm 7 mps 758 mmHg 52%
    21:00 +13°C° 0 mm 6 mps 758 mmHg 55%
    22:00 +11°C° 0 mm 6 mps 759 mmHg 57%
    23:00 +11°C° 0 mm 6 mps 759 mmHg 57%
    Show more